Location: Peterborough
(44.3091°N, 78.3197°W)
Time: 06:29:08
(UTC-04:00)

Vanguard 3 - Pass Details

Date: 25 February 2024
Orbit: 510 x 3234 km, 33.3° (Epoch: 24 April)

Event Time Altitude Azimuth Distance (km) Brightness Sun altitude
Rises 18:09:34 0° 197° (SSW) 6,360 12.1 -3.3°
Reaches altitude 10° 18:14:43 10° 185° (S) 5,680 11.6 -4.2°
Maximum altitude 18:27:58 25° 139° (SE) 4,944 10.8 -6.6°
Drops below altitude 10° 18:41:47 10° 93° (E) 6,003 10.9 -9.0°
Enters shadow 18:42:04 10° 93° (E) 6,041 10.9 -9.1°
